Location: Seattle
(47.6060°N, 122.3310°W)
Time: 15:57:06
(UTC-08:00)

ISS - Visible Passes

Search period start: 28 November 2014 00:00
Search period end: 08 December 2014 00:00
Orbit: 407 x 417 km, 51.6° (Epoch: 28 November)

Date Brightness Start Highest point End Pass type
(mag) Time Alt. Az. Time Alt. Az. Time Alt. Az.
28 Nov -0.8 06:05:56 11° SW 06:05:56 11° SW 06:06:34 10° SW visible
29 Nov -0.4 05:18:28 10° S 05:18:28 10° S 05:18:30 10° S visible
07 Dec -0.7 18:30:25 10° S 18:31:00 13° S 18:31:00 13° S visible
